Aérodrome :
LOGIN :

S'inscrire | Disclaimer

   EN    FR    IT 

 










Légende :    VFR   VFR Marginal   IFR   IFR Intensif   IFR Très Intensif
Visi : 
Plafond : 
>= 8 km
>= 3000ft
5 à 8 km
1000 à 3000 ft
1500m à 5 km
500 à 1000 ft
800 à 1500m
200 à 500 ft
< 800m
< 200 ft
Symboles :   Orages  Brouillard  Fortes neiges  Fortes précipitations  Vent > 20 kt
SIGMETs :   Divers  Orages  Givrage  Turbulence  Onde Orograph.  Cendres Volcan.







- Altitude de l'aérodrome : 1649 ft
- Code IATA : HHN


EDFH - Frankfurt-Hahn Rhineland-Palatinate

DERNIER METAR :
  • 191050Z 16008KT 120V190 CAVOK 16/12 Q1014

METARs EXPIRÉS :
  • 191020Z 14007KT CAVOK 15/12 Q1014
  • 190950Z 14007KT CAVOK 13/11 Q1014
  • 190920Z 14007KT CAVOK 14/11 Q1014
  • 190850Z 14008KT 9999 VCFG NSC 13/11 Q1014
  • 190820Z 15008KT 9999 VCFG NSC 12/10 Q1014

TAF TAF EDFH
Valide du 19 à 06h jusqu'au 20 à 06h UTC


190500Z 1906/2006 17008KT CAVOK
Pas de NOTAMs connus pour ce terrain.



MET'MAP, la Météo Aéronautique d'un coup d'oeil ! - Copyright ORBIFLY Décembre 2007 - Disclaimer

ORBIFLY MET'MAP TEAM :

Programmation & Développement : Alexandra Zaïnal
Conception & Développement : Baudouin d'Aumeries
Co-Programmation & Développement : Marc-Olivier Méhu
Soutien technique & logistique : Manuel Goepfert

Contact : metmap@orbifly.com




SOURCES & CREDITS :

   NOAA